TimeCST,TemperatureF,Dew PointF,Humidity,Sea Level PressureIn,VisibilityMPH,Wind Direction,Wind SpeedMPH,Gust SpeedMPH,PrecipitationIn,Events,Conditions,WindDirDegrees,DateUTC
12:15 AM,49.1,35.2,59,30.02,10.0,South,12.7,-,N/A,,Clear,170,2013-11-09 06:15:00
12:35 AM,49.3,35.6,59,30.02,10.0,South,11.5,-,N/A,,Clear,180,2013-11-09 06:35:00
12:55 AM,49.5,35.8,59,30.02,10.0,SSW,11.5,18.4,N/A,,Clear,200,2013-11-09 06:55:00
1:15 AM,50.4,36.0,58,30.02,10.0,South,10.4,19.6,N/A,,Clear,190,2013-11-09 07:15:00
1:35 AM,50.5,36.1,58,30.01,10.0,SSW,11.5,17.3,N/A,,Clear,200,2013-11-09 07:35:00
1:55 AM,50.5,36.5,59,30.01,10.0,SSW,12.7,18.4,N/A,,Clear,200,2013-11-09 07:55:00
2:15 AM,50.4,36.5,59,30.01,10.0,SSW,10.4,-,N/A,,Clear,200,2013-11-09 08:15:00
2:35 AM,50.0,36.7,60,30.00,10.0,SSW,9.2,-,N/A,,Clear,210,2013-11-09 08:35:00
2:55 AM,50.5,36.9,59,30.00,10.0,SSW,10.4,18.4,N/A,,Clear,210,2013-11-09 08:55:00
3:15 AM,50.2,37.0,61,30.00,10.0,SSW,12.7,19.6,N/A,,Clear,210,2013-11-09 09:15:00
3:35 AM,50.2,37.4,62,30.01,10.0,SSW,11.5,16.1,N/A,,Clear,210,2013-11-09 09:35:00
3:55 AM,50.5,37.4,61,30.01,10.0,SW,12.7,20.7,N/A,,Clear,220,2013-11-09 09:55:00
4:15 AM,50.0,37.6,62,30.01,10.0,SW,11.5,19.6,N/A,,Clear,220,2013-11-09 10:15:00
4:35 AM,50.0,37.6,62,30.01,10.0,SW,9.2,-,N/A,,Clear,220,2013-11-09 10:35:00
4:55 AM,49.6,37.8,64,30.02,10.0,SW,8.1,-,N/A,,Clear,220,2013-11-09 10:55:00
5:15 AM,49.5,37.8,64,30.03,10.0,SW,8.1,-,N/A,,Clear,220,2013-11-09 11:15:00
5:35 AM,49.5,37.8,64,30.03,10.0,SW,6.9,-,N/A,,Clear,230,2013-11-09 11:35:00
5:55 AM,49.1,37.9,65,30.04,10.0,SW,9.2,-,N/A,,Clear,230,2013-11-09 11:55:00
6:15 AM,49.3,38.3,66,30.04,10.0,SW,8.1,-,N/A,,Clear,230,2013-11-09 12:15:00
6:35 AM,48.9,38.3,67,30.04,10.0,SW,9.2,-,N/A,,Clear,220,2013-11-09 12:35:00
6:55 AM,49.1,38.3,66,30.05,10.0,SW,11.5,-,N/A,,Clear,220,2013-11-09 12:55:00
7:15 AM,49.6,38.5,65,30.06,10.0,SW,10.4,17.3,N/A,,Clear,230,2013-11-09 13:15:00
7:35 AM,50.7,38.7,63,30.06,10.0,WSW,11.5,-,N/A,,Clear,240,2013-11-09 13:35:00
7:55 AM,51.6,38.8,62,30.07,10.0,WSW,12.7,17.3,N/A,,Clear,240,2013-11-09 13:55:00
8:15 AM,52.7,39.2,60,30.07,10.0,WSW,15.0,21.9,N/A,,Clear,240,2013-11-09 14:15:00
8:35 AM,53.1,39.2,59,30.08,10.0,WSW,15.0,18.4,N/A,,Clear,240,2013-11-09 14:35:00
8:55 AM,53.8,39.2,58,30.08,10.0,WSW,16.1,-,N/A,,Clear,250,2013-11-09 14:55:00
9:15 AM,54.9,39.4,56,30.08,10.0,WSW,16.1,20.7,N/A,,Clear,250,2013-11-09 15:15:00
9:35 AM,55.4,39.4,55,30.08,10.0,West,15.0,-,N/A,,Clear,260,2013-11-09 15:35:00
9:55 AM,56.5,39.4,53,30.07,10.0,WSW,13.8,18.4,N/A,,Clear,240,2013-11-09 15:55:00
10:15 AM,57.6,39.4,51,30.08,10.0,WSW,9.2,19.6,N/A,,Clear,240,2013-11-09 16:15:00
10:35 AM,59.0,39.6,49,30.08,10.0,West,12.7,-,N/A,,Clear,260,2013-11-09 16:35:00
10:55 AM,59.9,39.2,46,30.08,10.0,WSW,13.8,17.3,N/A,,Clear,250,2013-11-09 16:55:00
11:15 AM,61.3,39.4,44,30.08,10.0,WSW,9.2,-,N/A,,Clear,240,2013-11-09 17:15:00
11:35 AM,61.7,38.1,42,30.07,10.0,WSW,13.8,17.3,N/A,,Clear,250,2013-11-09 17:35:00
11:55 AM,62.2,38.3,41,30.07,10.0,WSW,11.5,16.1,N/A,,Clear,250,2013-11-09 17:55:00
12:15 PM,63.0,38.1,40,30.07,10.0,WSW,12.7,18.4,N/A,,Clear,250,2013-11-09 18:15:00
12:35 PM,63.9,37.4,38,30.07,10.0,West,11.5,20.7,N/A,,Clear,260,2013-11-09 18:35:00
12:55 PM,64.8,35.4,34,30.07,10.0,West,15.0,20.7,N/A,,Clear,280,2013-11-09 18:55:00
1:15 PM,64.4,35.4,34,30.07,10.0,West,11.5,19.6,N/A,,Clear,280,2013-11-09 19:15:00
1:35 PM,64.9,36.0,34,30.07,10.0,West,10.4,18.4,N/A,,Clear,260,2013-11-09 19:35:00
1:55 PM,65.5,34.3,31,30.07,10.0,West,11.5,18.4,N/A,,Clear,260,2013-11-09 19:55:00
2:15 PM,65.7,34.2,31,30.08,10.0,West,10.4,-,N/A,,Clear,280,2013-11-09 20:15:00
2:35 PM,66.4,31.8,28,30.08,10.0,West,12.7,18.4,N/A,,Clear,270,2013-11-09 20:35:00
2:55 PM,66.6,32.5,28,30.08,10.0,West,12.7,20.7,N/A,,Clear,280,2013-11-09 20:55:00
3:15 PM,66.4,30.6,26,30.08,10.0,WNW,12.7,19.6,N/A,,Clear,290,2013-11-09 21:15:00
3:35 PM,66.0,30.4,26,30.09,10.0,West,9.2,17.3,N/A,,Clear,270,2013-11-09 21:35:00
3:55 PM,65.5,31.3,28,30.10,10.0,WNW,9.2,-,N/A,,Clear,290,2013-11-09 21:55:00
4:15 PM,63.5,32.0,31,30.11,10.0,WNW,5.8,-,N/A,,Clear,300,2013-11-09 22:15:00
4:35 PM,62.6,31.8,32,30.11,10.0,WNW,6.9,-,N/A,,Clear,290,2013-11-09 22:35:00
4:55 PM,60.6,32.0,34,30.12,10.0,West,3.5,-,N/A,,Clear,270,2013-11-09 22:55:00
5:15 PM,58.8,31.6,36,30.13,10.0,West,3.5,-,N/A,,Clear,270,2013-11-09 23:15:00
5:35 PM,58.3,31.3,36,30.13,10.0,West,3.5,-,N/A,,Clear,270,2013-11-09 23:35:00
5:55 PM,54.9,32.2,42,30.15,10.0,West,4.6,-,N/A,,Clear,270,2013-11-09 23:55:00
6:15 PM,55.9,32.0,40,30.16,10.0,West,3.5,-,N/A,,Clear,270,2013-11-10 00:15:00
6:35 PM,55.4,32.2,41,30.16,10.0,WNW,3.5,-,N/A,,Clear,290,2013-11-10 00:35:00
6:55 PM,54.0,32.4,44,30.17,10.0,West,3.5,-,N/A,,Clear,280,2013-11-10 00:55:00
7:15 PM,52.2,33.1,48,30.17,10.0,WNW,4.6,-,N/A,,Clear,290,2013-11-10 01:15:00
7:35 PM,50.7,33.6,52,30.18,10.0,WNW,5.8,-,N/A,,Clear,290,2013-11-10 01:35:00
8:35 PM,51.1,33.3,51,30.20,10.0,West,4.6,-,N/A,,Clear,270,2013-11-10 02:35:00
8:55 PM,51.3,33.1,50,30.20,10.0,West,4.6,-,N/A,,Clear,280,2013-11-10 02:55:00
9:15 PM,48.0,33.6,57,30.21,10.0,West,4.6,-,N/A,,Clear,270,2013-11-10 03:15:00
9:35 PM,48.9,33.3,55,30.22,10.0,West,3.5,-,N/A,,Clear,270,2013-11-10 03:35:00
9:55 PM,47.7,33.6,58,30.23,10.0,West,4.6,-,N/A,,Clear,260,2013-11-10 03:55:00
10:15 PM,48.2,33.8,58,30.24,10.0,West,4.6,-,N/A,,Clear,260,2013-11-10 04:15:00
10:35 PM,47.1,33.8,60,30.25,10.0,West,5.8,-,N/A,,Clear,280,2013-11-10 04:35:00
10:55 PM,47.7,33.8,59,30.25,10.0,WNW,5.8,-,N/A,,Clear,300,2013-11-10 04:55:00
11:15 PM,45.3,34.7,66,30.26,10.0,NW,8.1,-,N/A,,Clear,310,2013-11-10 05:15:00
11:35 PM,47.3,34.9,62,30.27,10.0,NW,9.2,-,N/A,,Clear,320,2013-11-10 05:35:00
11:55 PM,47.1,34.7,62,30.27,10.0,NW,10.4,-,N/A,,Clear,320,2013-11-10 05:55:00